Latest Weather Observations for Warwick

IDQ60901

Issued at 10:11 pm EST Sunday 2 August 2015 (issued every 10 minutes, with the page automatically refreshed every 10 minutes)

About weather observations | Map of Brisbane area stations | Latest observations for Brisbane area | Other Formats
Station Details ID: 041525 Name: WARWICK Lat: -28.21 Lon: 152.10 Height: 475.4 m
Data from the previous 72 hours. | See also: Recent months at Warwick
Date/Time
EST
Tmp

°C
App
Tmp
°C
Dew
Point
°C
Rel
Hum
%
Delta-T

°C
Wind Press
QNH
hPa
Press
MSL
hPa
Rain
since
9 am
mm
Dir
 
Spd
km/h
Gust
km/h
Spd
kts
Gust
kts
02/10:00pm 10.3 9.4 5.9 74 2.1 CALM 0 0 0 0 1020.3 1020.2 0.0
02/09:30pm 10.5 9.5 5.4 70 2.4 CALM 0 0 0 0 1020.3 1020.2 0.0
02/09:00pm 12.1 9.4 5.4 63 3.2 NNW 9 15 5 8 1020.1 1020.0 0.0
02/08:30pm 13.8 10.5 4.5 53 4.4 N 11 13 6 7 1020.0 1019.9 0.0
02/08:00pm 15.7 12.0 4.7 48 5.3 NNW 13 17 7 9 1019.9 1019.8 0.0
02/07:30pm 16.4 13.1 4.3 44 5.8 NNW 11 17 6 9 1019.7 1019.5 0.0
02/07:00pm 18.0 14.6 3.9 39 6.8 NW 11 17 6 9 1019.7 1019.5 0.0
02/06:30pm 19.0 15.1 3.4 35 7.5 NW 13 20 7 11 1019.6 1019.4 0.0
02/06:00pm 18.8 15.8 3.9 37 7.2 NW 9 15 5 8 1019.1 1019.0 0.0
02/05:30pm 19.9 16.5 3.9 34 7.8 NW 11 17 6 9 1018.8 1018.7 0.0
02/05:00pm 20.8 17.5 4.8 35 8.0 NW 11 20 6 11 1018.7 1018.6 0.0
02/04:30pm 21.8 17.8 5.0 33 8.5 NW 15 24 8 13 1018.7 1018.6 0.0
02/04:00pm 22.2 18.5 6.2 35 8.3 NW 15 24 8 13 1018.7 1018.6 0.0
02/03:30pm 22.6 19.0 6.8 36 8.3 NW 15 30 8 16 1018.9 1018.8 0.0
02/03:00pm 22.7 18.0 5.3 32 8.9 NW 19 30 10 16 1018.9 1018.8 0.0
02/02:30pm 22.3 17.5 5.5 33 8.6 NW 20 32 11 17 1019.0 1018.9 0.0
02/02:00pm 22.5 18.6 6.9 36 8.2 NW 17 26 9 14 1019.5 1019.3 0.0
02/01:30pm 21.9 17.3 6.5 37 8.0 NW 20 35 11 19 1019.8 1019.6 0.0
02/01:00pm 22.0 17.9 6.1 35 8.2 NW 17 28 9 15 1020.2 1020.1 0.0
02/12:30pm 21.9 17.2 5.1 33 8.5 WNW 19 28 10 15 1020.7 1020.6 0.0
02/12:00pm 21.1 17.5 6.6 39 7.5 WNW 15 24 8 13 1021.2 1021.1 0.0
02/11:30am 20.1 16.5 6.7 41 6.9 W 15 28 8 15 1022.0 1021.9 0.0
02/11:00am 20.1 16.4 6.4 41 7.0 WNW 15 28 8 15 1022.4 1022.3 0.0
02/10:30am 19.3 16.8 6.6 43 6.5 W 9 20 5 11 1022.6 1022.5 0.0
02/10:00am 16.2 14.6 6.4 52 4.9 SSW 4 9 2 5 1023.1 1023.0 0.0
02/09:30am 13.4 12.5 6.0 61 3.6 CALM 0 0 0 0 1023.2 1023.1 0.0
02/09:00am 11.5 10.4 5.3 65 2.9 CALM 0 0 0 0 1023.3 1023.2 0.0
02/08:30am 7.5 4.9 3.4 75 1.8 SW 6 7 3 4 1023.5 1023.5 0.0
02/08:00am 4.9 3.3 2.5 84 1.0 CALM 0 0 0 0 1023.3 1023.2 0.0
02/07:30am 3.1 1.4 1.6 90 0.6 CALM 0 0 0 0 1023.2 1023.1 0.0
02/07:00am 1.1 -0.9 0.0 92 0.4 CALM 0 0 0 0 1023.0 1022.9 0.0
02/06:30am 1.0 -0.9 0.5 96 0.2 CALM 0 0 0 0 1022.8 1022.7 0.0
02/06:00am 2.2 -1.3 1.4 94 0.3 ENE 9 11 5 6 1022.4 1022.3 0.0
02/05:30am 3.7 2.0 2.0 89 0.7 CALM 0 0 0 0 1022.4 1022.3 0.0
02/05:00am 2.7 0.6 1.4 91 0.5 WSW 2 6 1 3 1022.2 1022.1 0.0
02/04:30am 1.7 -0.9 0.7 93 0.4 SSW 4 7 2 4 1022.0 1021.9 0.0
02/04:00am 3.2 1.6 2.2 93 0.4 CALM 0 0 0 0 1021.8 1021.7 0.0
02/03:30am 3.6 0.8 2.1 90 0.6 ENE 6 7 3 4 1022.0 1021.9 0.0
02/03:00am 4.4 2.8 2.2 86 0.9 CALM 0 0 0 0 1022.3 1022.2 0.0
02/02:30am 3.7 2.1 2.2 90 0.6 CALM 0 0 0 0 1022.4 1022.3 0.0
02/02:00am 3.5 1.8 2.0 90 0.6 CALM 0 0 0 0 1022.5 1022.4 0.0
02/01:30am 4.0 1.3 2.5 90 0.6 ENE 6 9 3 5 1022.7 1022.6 0.0
02/01:00am 5.4 3.9 2.8 83 1.1 CALM 0 0 0 0 1022.9 1022.8 0.0
02/12:30am 4.8 2.8 2.4 84 1.0 ENE 2 6 1 3 1023.1 1023.0 0.0
02/12:00am 5.1 3.5 2.7 84 1.0 CALM 0 0 0 0 1023.1 1023.0 0.0
 
Date/Time
EST
Tmp

°C
App
Tmp
°C
Dew
Point
°C
Rel
Hum
%
Delta-T

°C
Wind Press
QNH
hPa
Press
MSL
hPa
Rain
since
9 am
mm
Dir
 
Spd
km/h
Gust
km/h
Spd
kts
Gust
kts
01/11:30pm 5.5 3.9 2.6 81 1.2 CALM 0 0 0 0 1023.2 1023.1 0.0
01/11:00pm 7.1 5.7 3.7 79 1.5 CALM 0 0 0 0 1023.1 1023.0 0.0
01/10:30pm 7.6 6.3 4.2 79 1.5 CALM 0 0 0 0 1023.0 1022.9 0.0
01/10:00pm 7.7 6.3 3.6 75 1.8 CALM 0 0 0 0 1023.2 1023.1 0.0
01/09:30pm 8.1 6.8 4.3 77 1.7 CALM 0 0 0 0 1023.1 1023.0 0.0
01/09:00pm 8.7 7.5 4.5 75 1.9 CALM 0 2 0 1 1023.1 1023.0 0.0
01/08:30pm 10.6 8.0 4.0 63 3.0 E 7 13 4 7 1023.0 1022.9 0.0
01/08:00pm 11.3 7.8 3.6 59 3.5 ENE 11 15 6 8 1022.6 1022.5 0.0
01/07:53pm 10.5 7.2 4.4 66 2.8 ENE 11 17 6 9 1022.5 1022.4 0.0
01/07:30pm 15.5 11.6 3.3 44 5.7 NNW 13 17 7 9 1022.1 1022.0 0.0
01/07:00pm 16.2 11.4 0.3 34 7.0 NNW 15 20 8 11 1021.8 1021.7 0.0
01/06:30pm 16.8 13.5 0.3 32 7.3 NW 7 11 4 6 1021.2 1021.1 0.0
01/06:00pm 16.9 13.2 -0.2 31 7.5 WNW 9 13 5 7 1021.0 1020.9 0.0
01/05:30pm 17.8 13.7 -0.4 29 8.0 NW 11 13 6 7 1020.9 1020.8 0.0
01/05:00pm 20.2 15.9 -1.7 23 9.6 WNW 11 17 6 9 1020.6 1020.5 0.0
01/04:30pm 21.7 17.1 -1.4 21 10.3 WNW 13 19 7 10 1020.5 1020.4 0.0
01/04:00pm 22.4 17.9 -0.3 22 10.4 W 13 22 7 12 1020.6 1020.5 0.0
01/03:30pm 23.1 18.3 -2.9 17 11.4 NW 13 19 7 10 1020.5 1020.4 0.0
01/03:00pm 22.9 17.8 -2.0 19 11.1 NW 15 22 8 12 1020.4 1020.3 0.0
01/02:30pm 23.1 18.6 -0.4 21 10.8 NNW 13 24 7 13 1020.4 1020.3 0.0
01/02:00pm 22.9 17.3 -2.5 18 11.2 NNW 17 24 9 13 1020.6 1020.5 0.0
01/01:30pm 22.8 17.8 -1.0 20 10.8 NNW 15 24 8 13 1020.8 1020.7 0.0
01/01:00pm 22.6 18.0 1.6 25 10.0 WNW 15 22 8 12 1021.3 1021.2 0.0
01/12:30pm 21.7 18.5 2.9 29 9.1 NNW 9 19 5 10 1021.8 1021.7 0.0
01/12:00pm 21.2 17.7 3.6 31 8.6 NNW 11 22 6 12 1022.1 1022.0 0.0
01/11:30am 20.4 16.8 2.9 31 8.4 NW 11 17 6 9 1022.8 1022.7 0.0
01/11:00am 18.2 16.0 5.5 43 6.3 SW 6 11 3 6 1023.1 1023.0 0.0
01/10:30am 16.3 13.9 5.2 47 5.4 SSW 7 11 4 6 1023.7 1023.7 0.0
01/10:00am 13.7 12.5 4.6 54 4.3 CALM 0 0 0 0 1023.8 1023.8 0.0
01/09:30am 11.6 9.5 3.7 58 3.6 SSW 4 9 2 5 1024.2 1024.3 0.0
01/09:00am 10.2 8.9 4.0 65 2.8 CALM 0 0 0 0 1024.1 1024.2 0.0
01/08:30am 7.0 5.6 3.3 77 1.6 CALM 0 0 0 0 1024.3 1024.4 0.0
01/08:00am 5.6 4.0 2.5 80 1.3 CALM 0 0 0 0 1024.1 1024.2 0.0
01/07:30am 2.3 0.4 0.5 88 0.7 CALM 0 0 0 0 1024.0 1024.1 0.0
01/07:00am 0.7 -1.3 0.2 96 0.2 CALM 0 0 0 0 1023.4 1023.6 0.0
01/06:30am 1.9 0.1 0.9 93 0.4 CALM 0 0 0 0 1023.0 1023.2 0.0
01/06:00am 1.1 -0.8 0.8 98 0.1 CALM 0 0 0 0 1022.6 1022.7 0.0
01/05:30am 0.6 -1.3 0.3 98 0.1 CALM 0 0 0 0 1022.5 1022.6 0.0
01/05:00am 1.2 -0.7 0.4 94 0.3 CALM 0 0 0 0 1022.6 1022.7 0.0
01/04:30am 0.4 - - - - CALM 0 0 0 0 1022.7 1022.9 0.0
01/04:00am 0.5 -1.4 0.5 100 0.0 CALM 0 0 0 0 1022.7 1022.9 0.0
01/03:30am 2.7 0.8 0.6 86 0.8 CALM 0 0 0 0 1022.7 1022.9 0.0
01/03:00am 1.9 -0.1 0.0 87 0.7 CALM 0 0 0 0 1023.1 1023.3 0.0
01/02:30am 3.2 1.5 1.7 90 0.6 CALM 0 0 0 0 1023.2 1023.4 0.0
01/02:00am 3.0 1.2 1.0 87 0.8 CALM 0 0 0 0 1023.2 1023.4 0.0
01/01:30am 2.1 0.2 0.5 89 0.6 CALM 0 0 0 0 1023.6 1023.8 0.0
01/01:00am 1.7 -0.2 0.4 91 0.5 CALM 0 0 0 0 1023.6 1023.8 0.0
01/12:30am 3.3 1.5 1.5 88 0.7 CALM 0 7 0 4 1023.5 1023.7 0.0
01/12:00am 3.3 1.5 1.5 88 0.7 CALM 0 0 0 0 1023.6 1023.8 0.0
 
Date/Time
EST
Tmp

°C
App
Tmp
°C
Dew
Point
°C
Rel
Hum
%
Delta-T

°C
Wind Press
QNH
hPa
Press
MSL
hPa
Rain
since
9 am
mm
Dir
 
Spd
km/h
Gust
km/h
Spd
kts
Gust
kts
31/11:30pm 3.7 2.0 2.0 89 0.7 CALM 0 0 0 0 1023.4 1023.6 0.0
31/11:00pm 5.5 3.9 2.4 80 1.3 CALM 0 2 0 1 1023.4 1023.6 0.0
31/10:30pm 5.7 2.3 1.8 76 1.6 N 9 11 5 6 1023.5 1023.7 0.0
31/10:00pm 5.4 3.7 2.0 79 1.4 CALM 0 0 0 0 1023.3 1023.5 0.0
31/09:30pm 6.2 3.8 2.4 76 1.6 NE 4 6 2 3 1023.1 1023.3 0.0
31/09:00pm 7.1 4.1 2.1 70 2.1 E 7 11 4 6 1023.0 1023.2 0.0
31/08:30pm 10.1 7.1 0.5 51 4.0 NE 6 9 3 5 1022.7 1022.9 0.0
31/08:00pm 9.7 8.0 1.8 58 3.4 CALM 0 0 0 0 1022.6 1022.7 0.0
31/07:52pm 8.6 7.1 2.8 67 2.5 CALM 0 2 0 1 1022.6 1022.7 0.0
31/07:30pm 13.8 10.4 1.6 43 5.4 W 9 11 5 6 1022.4 1022.5 0.0
31/07:00pm 14.1 10.7 1.8 43 5.5 W 9 13 5 7 1022.1 1022.2 0.0
31/06:30pm 14.8 10.9 1.0 39 6.1 WNW 11 13 6 7 1021.8 1021.9 0.0
31/06:00pm 15.2 11.6 0.6 37 6.4 WNW 9 13 5 7 1021.4 1021.6 0.0
31/05:30pm 16.1 12.0 0.1 33 7.0 WNW 11 17 6 9 1021.1 1021.3 0.0
31/05:00pm 17.5 14.1 2.1 35 7.1 W 9 13 5 7 1021.0 1021.2 0.0
31/04:30pm 18.8 14.6 1.8 32 7.9 WSW 13 20 7 11 1020.8 1020.9 0.0
31/04:00pm 19.8 14.8 1.2 29 8.6 WSW 17 24 9 13 1020.8 1020.9 0.0
31/03:30pm 20.0 14.4 0.1 26 9.0 WSW 19 26 10 14 1020.8 1020.9 0.0
31/03:00pm 20.5 16.0 0.0 25 9.3 W 13 24 7 13 1020.7 1020.8 0.0
31/02:30pm 20.3 15.4 -0.8 24 9.4 WSW 15 26 8 14 1020.8 1020.9 0.0
31/02:00pm 20.2 14.8 -1.0 24 9.4 WNW 17 24 9 13 1021.0 1021.2 0.0
31/01:30pm 20.3 15.1 0.4 26 9.1 W 17 24 9 13 1021.3 1021.5 0.0
31/01:00pm 19.9 14.6 -0.4 25 9.1 W 17 24 9 13 1021.4 1021.6 0.0
31/12:30pm 19.5 14.4 0.6 28 8.6 W 17 26 9 14 1022.0 1022.1 0.0
31/12:00pm 19.0 14.5 2.4 33 7.8 W 15 24 8 13 1022.4 1022.5 0.0
31/11:30am 17.6 13.2 4.9 43 6.2 NW 17 24 9 13 1023.1 1023.3 0.0
31/11:00am 16.9 12.8 4.4 43 6.0 NW 15 20 8 11 1023.5 1023.7 0.0
31/10:30am 15.9 11.8 4.1 45 5.6 NW 15 22 8 12 1024.0 1024.1 0.0
31/10:00am 14.9 11.9 5.9 55 4.4 WNW 11 15 6 8 1024.3 1024.4 0.0
31/09:30am 11.9 10.6 7.5 74 2.2 SSE 4 9 2 5 1024.4 1024.5 0.0
31/09:00am 8.6 6.5 6.0 84 1.2 SW 6 7 3 4 1024.5 1024.7 0.0
31/08:30am 5.0 3.3 3.8 92 0.5 SW 2 7 1 4 1024.5 1024.7 0.0
31/08:00am 2.2 0.6 2.2 100 0.0 CALM 0 0 0 0 1024.4 1024.5 0.0
31/07:30am 1.6 -1.4 1.1 96 0.2 ENE 6 11 3 6 1024.3 1024.4 0.0
31/07:00am 0.8 -1.1 0.5 98 0.1 CALM 0 0 0 0 1024.1 1024.2 0.0
31/06:30am 1.6 -0.1 1.6 100 0.0 CALM 0 0 0 0 1023.7 1023.9 0.0
31/06:00am 1.5 -0.3 1.5 100 0.0 CALM 0 0 0 0 1023.0 1023.2 0.0
31/05:30am 1.2 -1.7 1.2 100 0.0 SW 6 7 3 4 1023.1 1023.3 0.0
31/05:00am 2.6 1.0 2.6 100 0.0 CALM 0 0 0 0 1022.5 1022.6 0.0
31/04:30am 3.1 1.5 2.6 96 0.2 CALM 0 0 0 0 1022.3 1022.4 0.0
31/04:00am 3.0 1.4 2.5 96 0.2 CALM 0 0 0 0 1022.5 1022.6 0.0
31/03:30am 1.8 0.1 1.8 100 0.0 CALM 0 0 0 0 1022.5 1022.6 0.0
31/03:00am 5.5 2.7 5.1 97 0.2 ENE 9 11 5 6 1022.6 1022.7 0.0
31/02:30am 4.0 0.9 3.5 97 0.2 ENE 9 11 5 6 1023.4 1023.6 0.0
31/02:00am 2.7 1.1 2.5 99 0.1 CALM 0 0 0 0 1024.0 1024.1 0.0
31/01:30am 3.9 2.1 3.4 97 0.2 W 2 6 1 3 1023.7 1023.9 0.0
31/01:00am 4.6 2.2 4.4 99 0.1 WSW 6 9 3 5 1023.7 1023.9 0.0
31/12:30am 5.4 4.1 4.3 93 0.5 CALM 0 0 0 0 1023.4 1023.6 0.0
31/12:00am 4.5 3.2 4.0 97 0.2 CALM 0 0 0 0 1023.7 1023.9 0.0
 
Date/Time
EST
Tmp

°C
App
Tmp
°C
Dew
Point
°C
Rel
Hum
%
Delta-T

°C
Wind Press
QNH
hPa
Press
MSL
hPa
Rain
since
9 am
mm
Dir
 
Spd
km/h
Gust
km/h
Spd
kts
Gust
kts
30/11:30pm 5.5 4.3 4.8 95 0.3 CALM 0 0 0 0 1024.1 1024.2 0.0
30/11:00pm 5.2 4.0 4.5 95 0.3 CALM 0 0 0 0 1024.3 1024.4 0.0
30/10:30pm 6.5 5.4 4.9 89 0.7 CALM 0 0 0 0 1024.7 1024.9 0.0

Latest Capital City Observations: Canberra | Sydney | Melbourne | Brisbane | Adelaide | Perth | Hobart | Darwin

Other Formats:

Comma delimited format used in spreadsheet applications
http://www.bom.gov.au/fwo/IDQ60901/IDQ60901.94555.axf

JavaScript Object Notation format (JSON) in row-major order
http://www.bom.gov.au/fwo/IDQ60901/IDQ60901.94555.json